This is the latest recevied weather packets stored in our database for station/object AI5BL. If no packets are shown the sender has not sent any weather packets the latest 10 day(s).
| Time | Temp. | Humidity | Pressure | Rain* | Wind** | Luminosity | Snow |
|---|---|---|---|---|---|---|---|
| 1777323926 | 29.44° C | 60% | 1016.7 hPa | 0 mm | - | 137 W/m² | - |
| 1777323622 | 29.44° C | 60% | 1016.8 hPa | 0 mm | - | 144 W/m² | - |
| 1777323319 | 30° C | 65% | 1016.9 hPa | 0 mm | - | 199 W/m² | - |
| 1777323018 | 30° C | 67% | 1016.7 hPa | 0 mm | - | 153 W/m² | - |
| 1777322715 | 29.44° C | 61% | 1016.8 hPa | 0 mm | - | 185 W/m² | - |
| 1777322413 | 30° C | 69% | 1016.8 hPa | 0 mm | - | 195 W/m² | - |
| 1777322109 | 30° C | 60% | 1017.1 hPa | 0 mm | - | 182 W/m² | - |
| 1777321806 | 30° C | 61% | 1016.8 hPa | 0 mm | - | 233 W/m² | - |
| 1777321502 | 30° C | 63% | 1016.9 hPa | 0 mm | - | 327 W/m² | - |
| 1777321201 | 30.56° C | 64% | 1017.1 hPa | 0 mm | - | 198 W/m² | - |
| 1777320897 | 30.56° C | 59% | 1017 hPa | 0 mm | - | 276 W/m² | - |
| 1777320595 | 31.11° C | 63% | 1017 hPa | 0 mm | - | 234 W/m² | - |
| 1777320292 | 31.11° C | 59% | 1017 hPa | 0 mm | - | 308 W/m² | - |
| 1777319988 | 31.11° C | 64% | 1017.1 hPa | 0 mm | - | 300 W/m² | - |
| 1777319686 | 31.11° C | 61% | 1017.1 hPa | 0 mm | - | 426 W/m² | - |
| 1777319382 | 30.56° C | 58% | 1017 hPa | 0 mm | - | 737 W/m² | - |
| 1777319079 | 31.11° C | 55% | 1017.2 hPa | 0 mm | - | 600 W/m² | - |
| 1777318777 | 31.11° C | 59% | 1017.1 hPa | 0 mm | - | 632 W/m² | - |
| 1777318472 | 31.11° C | 63% | 1017.1 hPa | 0 mm | - | 640 W/m² | - |
| 1777318169 | 31.11° C | 58% | 1017.3 hPa | 0 mm | - | 678 W/m² | - |
| 1777317867 | 31.11° C | 55% | 1017.4 hPa | 0 mm | - | 690 W/m² | - |
| 1777317564 | 30.56° C | 57% | 1017.4 hPa | 0 mm | - | 673 W/m² | - |
| 1777317261 | 30.56° C | 56% | 1017.4 hPa | 0 mm | - | 704 W/m² | - |
| 1777316956 | 30.56° C | 57% | 1017.5 hPa | 0 mm | - | 759 W/m² | - |
| 1777316654 | 30.56° C | 59% | 1017.6 hPa | 0 mm | - | 802 W/m² | - |
* Rain latest hour (hover to see other rain measurements)
** Current wind speed in m/s (hover to see current wind gust speed)